Location: La Tine
(46.4708°N, 7.0525°E)
Time: 07:58:40
(UTC+00:00)

Cosmos 1833 Rocket - Pass Details

Date: 23 January 2021
Orbit: 833 x 839 km, 71.0° (Epoch: 24 February)

Event Time Altitude Azimuth Distance (km) Brightness Sun altitude
Rises 20:25:41 0° 320° (NW) 3,390 6.5 -41.4°
Reaches altitude 10° 20:28:49 10° 303° (WNW) 2,452 5.7 -41.9°
Enters shadow 20:31:34 18° 274° (W) 1,957 5.1 -42.3°
